EW5804 Weather Reports


Display with metric or nautical units.
time (UTC)temp
F
wind
direction
speed
MPH
gust
MPH
rain 1hr
in
rain 24hr
in
rain mn
in
humidity
%
barometer
mb
20260510204101 86 180 2.0 10.0 0.00 0.00 0.00 35 1012.9
20260510203601 85 203 2.0 6.0 0.00 0.00 0.00 33 1012.9
20260510203101 85 204 2.0 6.0 0.00 0.00 0.00 35 1013.0
20260510202601 85 176 2.0 7.0 0.00 0.00 0.00 33 1013.0
20260510202318 85 205 3.0 9.0 0.00 0.00 0.00 33 1013.2
20260510201601 85 161 3.0 9.0 0.00 0.00 0.00 32 1013.2
20260510201322 86 192 3.0 7.0 0.00 0.00 0.00 32 1013.2
20260510200559 86 214 3.0 9.0 0.00 0.00 0.00 32 1013.1
20260510200113 85 222 3.0 9.0 0.00 0.00 0.00 41 1013.1
20260510195558 85 179 3.0 8.0 0.00 0.00 0.00 36 1013.2
20260510195058 85 229 2.0 5.0 0.00 0.00 0.00 37 1013.1
20260510194558 85 88 2.0 5.0 0.00 0.00 0.00 33 1013.2
20260510194056 85 222 2.0 8.0 0.00 0.00 0.00 34 1013.4
20260510193553 85 275 2.0 8.0 0.00 0.00 0.00 32 1013.4
20260510193309 85 259 3.0 10.0 0.00 0.00 0.00 35 1013.6
20260510192538 85 181 2.0 10.0 0.00 0.00 0.00 33 1013.7
20260510192033 84 240 2.0 6.0 0.00 0.00 0.00 35 1013.7
20260510191528 84 228 3.0 10.0 0.00 0.00 0.00 37 1013.9
20260510191239 84 160 3.0 10.0 0.00 0.00 0.00 36 1013.8
20260510190734 84 126 3.0 8.0 0.00 0.00 0.00 35 1013.7
20260510190009 85 136 3.0 8.0 0.00 0.00 0.00 36 1013.7
20260510185733 85 315 2.0 6.0 0.00 0.00 0.00 36 1013.9
20260510184957 84 275 2.0 6.0 0.00 0.00 0.00 38 1014.0
20260510184452 84 204 1.0 6.0 0.00 0.00 0.00 37 1013.9
20260510183945 83 68 1.0 5.0 0.00 0.00 0.00 37 1013.8
20260510183438 83 17 2.0 4.0 0.00 0.00 0.00 37 1013.9
20260510182933 83 74 2.0 6.0 0.00 0.00 0.00 34 1013.9
20260510182428 83 198 3.0 9.0 0.00 0.00 0.00 38 1013.9
20260510182142 83 147 3.0 9.0 0.00 0.00 0.00 37 1014.0
20260510181636 83 136 2.0 6.0 0.00 0.00 0.00 35 1013.9
20260510180909 83 61 2.0 5.0 0.00 0.00 0.00 35 1013.9
20260510180405 84 151 3.0 7.0 0.00 0.00 0.00 32 1014.0
20260510180115 84 234 4.0 9.0 0.00 0.00 0.00 36 1014.0
20260510175351 83 259 5.0 10.0 0.00 0.00 0.00 36 1014.0
20260510174844 83 326 5.0 10.0 0.00 0.00 0.00 33 1014.1
20260510174340 83 345 3.0 7.0 0.00 0.00 0.00 35 1014.3
20260510174055 83 265 1.0 7.0 0.00 0.00 0.00 38 1014.2
20260510173327 83 195 2.0 5.0 0.00 0.00 0.00 40 1014.2
20260510172829 82 190 2.0 5.0 0.00 0.00 0.00 36 1014.3
20260510172329 81 289 2.0 7.0 0.00 0.00 0.00 37 1014.2
20260510171827 81 7 4.0 8.0 0.00 0.00 0.00 38 1014.3
20260510171325 81 47 4.0 8.0 0.00 0.00 0.00 38 1014.2
20260510170825 81 75 4.0 7.0 0.00 0.00 0.00 36 1014.3
20260510170340 81 132 4.0 8.0 0.00 0.00 0.00 37 1014.3
20260510165827 82 95 4.0 9.0 0.00 0.00 0.00 37 1014.4
20260510165809 83 46 3.0 9.0 0.00 0.00 0.00 35 1014.5
20260510164825 83 205 4.0 8.0 0.00 0.00 0.00 37 1014.6
20260510164325 82 253 3.0 8.0 0.00 0.00 0.00 39 1014.6
20260510163822 82 188 2.0 6.0 0.00 0.00 0.00 39 1014.6
20260510163535 81 340 2.0 6.0 0.00 0.00 0.00 39 1014.6
20260510163420 82 64 2.0 6.0 0.00 0.00 0.00 39 1014.6
20260510162315 81 308 3.0 8.0 0.00 0.00 0.00 41 1014.6
20260510161828 80 3 4.0 9.0 0.00 0.00 0.00 38 1014.6
20260510161251 81 52 3.0 9.0 0.00 0.00 0.00 41 1014.7
20260510160746 82 63 3.0 8.0 0.00 0.00 0.00 40 1014.8
20260510160455 82 254 3.0 8.0 0.00 0.00 0.00 46 1014.9
20260510155734 81 271 2.0 6.0 0.00 0.00 0.00 43 1014.9
20260510155227 81 303 1.0 4.0 0.00 0.00 0.00 44 1014.9
20260510154721 81 319 2.0 6.0 0.00 0.00 0.00 46 1015.0
20260510154216 81 299 3.0 7.0 0.00 0.00 0.00 45 1015.1
20260510153709 81 288 3.0 9.0 0.00 0.00 0.00 42 1015.0
20260510153430 81 242 3.0 9.0 0.00 0.00 0.00 50 1014.9
20260510152656 80 202 3.0 5.0 0.00 0.00 0.00 56 1014.9
20260510152150 80 278 2.0 4.0 0.00 0.00 0.00 51 1014.9
20260510151644 80 313 1.0 4.0 0.00 0.00 0.00 53 1014.9
20260510151138 79 291 2.0 5.0 0.00 0.00 0.00 55 1014.9
20260510150633 79 308 2.0 6.0 0.00 0.00 0.00 54 1015.0
20260510150357 78 41 2.0 6.0 0.00 0.00 0.00 54 1014.9
20260510145621 79 49 2.0 4.0 0.00 0.00 0.00 54 1015.0
20260510145115 79 262 2.0 4.0 0.00 0.00 0.00 54 1014.9
20260510144828 78 278 3.0 6.0 0.00 0.00 0.00 56 1014.8
20260510144103 78 269 3.0 8.0 0.00 0.00 0.00 58 1014.8
20260510143557 78 256 3.0 8.0 0.00 0.00 0.00 56 1014.8
20260510143051 77 284 3.0 6.0 0.00 0.00 0.00 57 1014.7
20260510142545 77 260 3.0 8.0 0.00 0.00 0.00 59 1014.8
20260510142038 76 315 4.0 9.0 0.00 0.00 0.00 59 1014.8
20260510141534 76 282 5.0 10.0 0.00 0.00 0.00 62 1014.8
20260510141026 75 255 5.0 10.0 0.00 0.00 0.00 62 1014.9
20260510140522 75 300 4.0 10.0 0.00 0.00 0.00 62 1015.0
20260510140236 75 307 4.0 8.0 0.00 0.00 0.00 64 1014.8
20260510135509 74 300 4.0 9.0 0.00 0.00 0.00 64 1014.6
20260510135003 74 294 4.0 9.0 0.00 0.00 0.00 66 1014.7
20260510134458 73 281 3.0 9.0 0.00 0.00 0.00 68 1014.6
20260510134435 73 311 2.0 5.0 0.00 0.00 0.00 70 1014.7
20260510133707 73 314 2.0 5.0 0.00 0.00 0.00 70 1014.6
20260510132938 72 306 3.0 6.0 0.00 0.00 0.00 71 1014.5
20260510132432 71 255 2.0 6.0 0.00 0.00 0.00 74 1014.5
20260510131934 70 246 2.0 6.0 0.00 0.00 0.00 77 1014.5
20260510131431 69 271 3.0 7.0 0.00 0.00 0.00 79 1014.4
20260510131419 68 256 3.0 9.0 0.00 0.00 0.00 81 1014.4
20260510130655 67 267 3.0 9.0 0.00 0.00 0.00 83 1014.4
20260510125932 67 297 2.0 6.0 0.00 0.00 0.00 85 1014.3
20260510125430 66 299 2.0 6.0 0.00 0.00 0.00 88 1014.3
20260510124928 65 259 3.0 7.0 0.00 0.00 0.00 90 1014.3
20260510124430 65 256 3.0 7.0 0.00 0.00 0.00 90 1014.3
20260510123926 64 253 2.0 5.0 0.00 0.00 0.00 91 1014.4
20260510123427 63 282 2.0 4.0 0.00 0.00 0.00 91 1014.3
20260510122928 63 267 2.0 4.0 0.00 0.00 0.00 91 1014.4
20260510122428 62 267 1.0 4.0 0.00 0.00 0.00 92 1014.4
20260510122407 62 232 0.0 3.0 0.00 0.00 0.00 92 1014.3
20260510121423 61 226 0.0 0.0 0.00 0.00 0.00 91 1014.2
20260510120924 60 225 0.0 0.0 0.00 0.00 0.00 91 1014.3
20260510120423 60 225 0.0 0.0 0.00 0.00 0.00 91 1014.2
20260510115922 60 219 0.0 0.0 0.00 0.00 0.00 91 1014.1
20260510115645 59 217 0.0 0.0 0.00 0.00 0.00 91 1014.1
20260510114923 59 217 0.0 0.0 0.00 0.00 0.00 91 1014.0
20260510114422 59 217 0.0 0.0 0.00 0.00 0.00 91 1013.9
20260510113924 58 217 0.0 0.0 0.00 0.00 0.00 91 1013.9
20260510113423 58 217 0.0 0.0 0.00 0.00 0.00 91 1013.9
20260510113140 58 217 0.0 0.0 0.00 0.00 0.00 91 1013.8
20260510112423 57 217 0.0 0.0 0.00 0.00 0.00 91 1013.7
20260510111923 57 213 0.0 0.0 0.00 0.00 0.00 91 1013.7
20260510111423 57 213 0.0 0.0 0.00 0.00 0.00 91 1013.6
20260510110923 57 213 0.0 0.0 0.00 0.00 0.00 91 1013.5
20260510110644 56 213 0.0 0.0 0.00 0.00 0.00 91 1013.4
20260510110149 56 213 0.0 0.0 0.00 0.00 0.00 91 1013.3
20260510105422 56 215 0.0 0.0 0.00 0.00 0.00 90 1013.2
20260510104920 56 215 0.0 0.0 0.00 0.00 0.00 90 1013.1
20260510104416 56 216 0.0 0.0 0.00 0.00 0.00 90 1013.1
20260510103907 56 215 0.0 0.0 0.00 0.00 0.00 90 1013.0
20260510103402 56 215 0.0 0.0 0.00 0.00 0.00 90 1012.9
20260510102856 56 228 0.0 0.0 0.00 0.00 0.00 90 1012.9
20260510102349 56 227 0.0 0.0 0.00 0.00 0.00 90 1012.9
20260510101843 56 227 0.0 0.0 0.00 0.00 0.00 90 1012.8
20260510101338 56 227 0.0 0.0 0.00 0.00 0.00 90 1012.8
20260510100832 56 227 0.0 0.0 0.00 0.00 0.00 90 1012.8
20260510100544 56 227 0.0 0.0 0.00 0.00 0.00 90 1012.7
20260510095820 56 227 0.0 0.0 0.00 0.00 0.00 90 1012.5
20260510095314 56 227 0.0 0.0 0.00 0.00 0.00 90 1012.4
20260510095034 56 227 0.0 0.0 0.00 0.00 0.00 90 1012.3
20260510094304 56 227 0.0 0.0 0.00 0.00 0.00 90 1012.5
20260510093755 56 226 0.0 0.0 0.00 0.00 0.00 90 1012.3
20260510093250 56 226 0.0 0.0 0.00 0.00 0.00 90 1012.2
20260510092743 57 226 0.0 0.0 0.00 0.00 0.00 90 1012.2
20260510092238 56 226 0.0 0.0 0.00 0.00 0.00 90 1012.2
20260510091731 57 226 0.0 0.0 0.00 0.00 0.00 89 1012.3
20260510091226 57 226 0.0 0.0 0.00 0.00 0.00 90 1012.1
20260510090719 57 226 0.0 0.0 0.00 0.00 0.00 90 1012.0
20260510090213 57 226 0.0 0.0 0.00 0.00 0.00 90 1012.0
20260510085708 57 226 0.0 0.0 0.00 0.00 0.00 89 1011.9
20260510085202 57 226 0.0 0.0 0.00 0.00 0.00 89 1011.8
20260510084656 57 226 0.0 0.0 0.00 0.00 0.00 89 1011.7
20260510084149 57 226 0.0 0.0 0.00 0.00 0.00 89 1011.8
20260510083644 57 227 0.0 0.0 0.00 0.00 0.00 89 1011.8
20260510083139 57 226 0.0 0.0 0.00 0.00 0.00 89 1011.7
20260510082857 57 226 0.0 0.0 0.00 0.00 0.00 89 1011.8
20260510082126 57 226 0.0 0.0 0.00 0.00 0.00 89 1011.9
20260510081632 57 226 0.0 0.0 0.00 0.00 0.00 89 1011.9
20260510081114 57 226 0.0 0.0 0.00 0.00 0.00 89 1011.9
20260510080608 57 226 0.0 0.0 0.00 0.00 0.00 89 1011.8
20260510080323 57 227 0.0 0.0 0.00 0.00 0.00 89 1011.8
20260510075557 58 227 0.0 0.0 0.00 0.00 0.00 89 1011.8
20260510075050 58 226 0.0 0.0 0.00 0.00 0.00 89 1011.6
20260510075020 58 227 0.0 0.0 0.00 0.00 0.00 89 1011.5
20260510074040 58 226 0.0 0.0 0.00 0.00 0.00 89 1011.6
20260510073532 58 226 0.0 0.0 0.00 0.00 0.00 89 1011.4
20260510073512 58 226 0.0 0.0 0.00 0.00 0.00 89 1011.4
20260510072521 58 226 0.0 0.0 0.00 0.00 0.00 89 1011.4
20260510072014 58 226 0.0 0.0 0.00 0.00 0.00 89 1011.3
20260510071507 58 226 0.0 0.0 0.00 0.00 0.00 89 1011.5
20260510071002 58 226 0.0 0.0 0.00 0.00 0.00 88 1011.4
20260510070456 58 224 0.0 0.0 0.00 0.00 0.00 88 1011.4
20260510065950 58 224 0.0 0.0 0.00 0.00 0.00 88 1011.5
20260510065444 58 224 0.0 0.0 0.00 0.00 0.00 88 1011.5
20260510064937 58 224 0.0 0.0 0.00 0.00 0.00 88 1011.6
20260510064432 58 224 0.0 0.0 0.00 0.00 0.00 88 1011.5
20260510064411 58 224 0.0 0.0 0.00 0.00 0.00 88 1011.5
20260510063420 59 224 0.0 0.0 0.00 0.00 0.00 88 1011.5
20260510062914 59 224 0.0 0.0 0.00 0.00 0.00 88 1011.4
20260510062408 59 224 0.0 0.0 0.00 0.00 0.00 88 1011.6
20260510061902 59 224 0.0 0.0 0.00 0.00 0.00 88 1011.5
20260510061355 59 224 0.0 0.0 0.00 0.00 0.00 88 1011.4
20260510060850 59 224 0.0 0.0 0.00 0.00 0.00 88 1011.8
20260510060343 59 224 0.0 0.0 0.00 0.00 0.00 88 1011.8
20260510060101 59 224 0.0 0.0 0.00 0.00 0.00 87 1011.7
20260510055332 59 224 0.0 0.0 0.00 0.00 0.00 87 1011.8
20260510054827 59 224 0.0 0.0 0.00 0.00 0.00 87 1011.8
20260510054320 59 224 0.0 0.0 0.00 0.00 0.00 87 1011.8
20260510053814 59 224 0.0 0.0 0.00 0.00 0.00 87 1011.9
20260510053309 59 224 0.0 0.0 0.00 0.00 0.00 87 1011.9
20260510052801 60 224 0.0 0.0 0.00 0.00 0.00 87 1012.0
20260510052255 60 224 0.0 0.0 0.00 0.00 0.00 87 1012.0
20260510051750 60 224 0.0 0.0 0.00 0.00 0.00 87 1012.0
20260510051518 60 224 0.0 0.0 0.00 0.00 0.00 87 1012.1
20260510050958 60 223 0.0 0.0 0.00 0.00 0.00 87 1012.1
20260510050233 60 195 0.0 0.0 0.00 0.00 0.00 87 1012.1
20260510045955 60 195 0.0 0.0 0.00 0.00 0.00 86 1012.0
20260510045447 60 195 0.0 0.0 0.00 0.00 0.00 86 1012.0
20260510044715 60 196 0.0 0.0 0.00 0.00 0.00 86 1012.0
20260510044209 60 195 0.0 0.0 0.00 0.00 0.00 86 1012.0
20260510043920 60 195 0.0 0.0 0.00 0.00 0.00 86 1011.9
20260510043155 60 192 0.0 0.0 0.00 0.00 0.00 86 1011.9
20260510042650 60 193 0.0 0.0 0.00 0.00 0.00 86 1011.8
20260510042413 60 193 0.0 0.0 0.00 0.00 0.00 86 1011.8
20260510041648 60 193 0.0 0.0 0.00 0.00 0.00 86 1011.8
20260510041147 60 195 0.0 0.0 0.00 0.00 0.00 85 1011.9
20260510040907 60 192 0.0 0.0 0.00 0.00 0.00 85 1011.9
20260510040147 60 193 0.0 0.0 0.00 0.00 0.00 85 1011.9
20260510035648 61 193 0.0 0.0 0.00 0.00 0.00 85 1011.8
20260510035147 61 193 0.0 0.0 0.00 0.00 0.00 85 1011.7
20260510034645 61 193 0.0 0.0 0.00 0.00 0.00 85 1011.6
20260510034142 61 193 0.0 0.0 0.00 0.00 0.00 85 1011.6
20260510034127 61 193 0.0 0.0 0.00 0.00 0.00 85 1011.5
20260510033404 61 192 0.0 0.0 0.00 0.00 0.00 85 1011.5
20260510032652 61 193 0.0 0.0 0.00 0.00 0.00 84 1011.6
20260510032134 61 193 0.0 0.0 0.00 0.00 0.00 84 1011.6
20260510031627 61 193 0.0 0.0 0.00 0.00 0.00 84 1011.5
20260510031346 62 192 0.0 0.0 0.00 0.00 0.00 84 1011.5
20260510030615 62 192 0.0 0.0 0.00 0.00 0.00 84 1011.6
20260510030114 62 193 0.0 0.0 0.00 0.00 0.00 84 1011.6
20260510025603 62 192 0.0 0.0 0.00 0.00 0.00 84 1011.5
20260510025058 62 192 0.0 0.0 0.00 0.00 0.00 83 1011.5
20260510024818 62 193 0.0 0.0 0.00 0.00 0.00 83 1011.3
20260510024047 62 193 0.0 0.0 0.00 0.00 0.00 83 1011.3
20260510023539 62 192 0.0 0.0 0.00 0.00 0.00 83 1011.4
20260510023034 62 192 0.0 0.0 0.00 0.00 0.00 83 1011.4
20260510022528 62 192 0.0 0.0 0.00 0.00 0.00 83 1011.3
20260510022021 63 192 0.0 0.0 0.00 0.00 0.00 83 1011.3
20260510021740 63 192 0.0 0.0 0.00 0.00 0.00 82 1011.1
20260510021010 63 193 0.0 0.0 0.00 0.00 0.00 82 1011.0
20260510020503 63 193 0.0 0.0 0.00 0.00 0.00 82 1011.0
20260510015958 63 192 0.0 0.0 0.00 0.00 0.00 82 1010.9
20260510015452 63 192 0.0 0.0 0.00 0.00 0.00 82 1011.0
20260510014945 64 193 0.0 0.0 0.00 0.00 0.00 81 1011.0
20260510014439 64 192 0.0 0.0 0.00 0.00 0.00 81 1011.0
20260510013934 64 192 0.0 0.0 0.00 0.00 0.00 81 1011.0
20260510013428 64 192 0.0 0.0 0.00 0.00 0.00 80 1011.0
20260510012922 64 193 0.0 0.0 0.00 0.00 0.00 80 1011.1
20260510012416 65 192 0.0 0.0 0.00 0.00 0.00 80 1011.1
20260510012406 65 192 0.0 0.0 0.00 0.00 0.00 79 1011.0
20260510011404 65 193 0.0 0.0 0.00 0.00 0.00 78 1011.0
20260510010857 65 192 0.0 0.0 0.00 0.00 0.00 77 1011.0
20260510010352 66 192 0.0 0.0 0.00 0.00 0.00 77 1010.9
20260510005847 66 193 0.0 2.0 0.00 0.00 0.00 76 1010.7
20260510005339 66 193 0.0 2.0 0.00 0.00 0.00 76 1010.6
20260510004835 67 193 0.0 2.0 0.00 0.00 0.00 75 1010.5
20260510004334 67 193 0.0 2.0 0.00 0.00 0.00 75 1010.6
20260510003832 67 193 0.0 1.0 0.00 0.00 0.00 74 1010.5
20260510003332 68 193 0.0 0.0 0.00 0.00 0.00 73 1010.4
20260510002834 68 193 0.0 1.0 0.00 0.00 0.00 73 1010.4
20260510002333 69 193 0.0 2.0 0.00 0.00 0.00 72 1010.4
20260510001832 69 193 0.0 2.0 0.00 0.00 0.00 71 1010.2
20260510001332 69 192 0.0 1.0 0.00 0.00 0.00 71 1010.0
20260510000833 70 192 0.0 1.0 0.00 0.00 0.00 70 1009.9
20260510000330 70 192 0.0 1.0 0.00 0.00 0.00 68 1010.1
20260509235830 71 192 0.0 1.0 0.00 0.00 0.00 68 1010.1
20260509235559 71 192 0.0 1.0 0.00 0.00 0.00 67 1010.1
20260509234831 72 192 0.0 1.0 0.00 0.00 0.00 66 1010.0
20260509234330 73 193 0.0 3.0 0.00 0.00 0.00 66 1010.0
20260509233828 73 192 1.0 3.0 0.00 0.00 0.00 64 1009.9
20260509233327 74 193 1.0 3.0 0.00 0.00 0.00 63 1010.0
20260509232828 75 235 1.0 4.0 0.00 0.00 0.00 62 1010.0
20260509232557 75 175 2.0 5.0 0.00 0.00 0.00 62 1010.0
20260509232054 76 217 1.0 5.0 0.00 0.00 0.00 61 1010.0
20260509231323 76 176 1.0 5.0 0.00 0.00 0.00 62 1010.1
20260509230824 76 193 2.0 5.0 0.00 0.00 0.00 60 1010.1
20260509230802 76 172 2.0 5.0 0.00 0.00 0.00 60 1010.0
20260509225824 76 280 2.0 11.0 0.00 0.00 0.00 59 1009.8
20260509225323 76 203 3.0 11.0 0.00 0.00 0.00 59 1009.9
20260509224824 76 232 3.0 10.0 0.00 0.00 0.00 58 1009.8
20260509224324 76 186 3.0 10.0 0.00 0.00 0.00 57 1009.9
20260509223824 77 182 2.0 7.0 0.00 0.00 0.00 57 1009.9
20260509223324 77 334 3.0 7.0 0.00 0.00 0.00 58 1010.0
20260509223041 77 204 3.0 6.0 0.00 0.00 0.00 60 1010.0
20260509222542 77 236 3.0 9.0 0.00 0.00 0.00 56 1009.7
20260509221816 77 271 3.0 9.0 0.00 0.00 0.00 56 1009.5
20260509221315 77 197 3.0 9.0 0.00 0.00 0.00 57 1009.5
20260509220815 77 245 3.0 9.0 0.00 0.00 0.00 57 1009.6
20260509220328 77 221 2.0 10.0 0.00 0.00 0.00 57 1009.7
20260509215816 77 201 3.0 10.0 0.00 0.00 0.00 57 1009.7
20260509215316 77 261 4.0 10.0 0.00 0.00 0.00 55 1009.7
20260509214817 77 207 4.0 10.0 0.00 0.00 0.00 54 1009.7
20260509214315 77 279 4.0 10.0 0.00 0.00 0.00 55 1009.7
20260509213816 77 274 4.0 10.0 0.00 0.00 0.00 55 1009.5
20260509213315 76 212 3.0 8.0 0.00 0.00 0.00 56 1009.5
20260509213035 76 329 3.0 10.0 0.00 0.00 0.00 56 1009.5
20260509212536 76 220 3.0 10.0 0.00 0.00 0.00 55 1009.5
20260509212038 76 195 3.0 10.0 0.00 0.00 0.00 55 1009.5
20260509211315 77 179 3.0 9.0 0.00 0.00 0.00 53 1009.5
20260509210828 77 207 3.0 8.0 0.00 0.00 0.00 53 1009.5
20260509210314 78 176 3.0 8.0 0.00 0.00 0.00 52 1009.5
20260509205814 78 194 3.0 8.0 0.00 0.00 0.00 52 1009.5
20260509205314 78 207 4.0 12.0 0.00 0.00 0.00 51 1009.6
20260509204813 79 234 4.0 12.0 0.00 0.00 0.00 51 1009.6
20260509204308 79 310 4.0 11.0 0.00 0.00 0.00 53 1009.5